Starlink 32232

operational
NORAD ID: 60431 Int'l Des: 2024-144 Owner: SPXS Country: US Constellation: starlink
LEOCIRCULAR

Über Starlink 32232

Beschreibung wird geladen...

Live-Position

3D-Globus wird geladen...

Nächste Überflüge

Höhenverlauf

Altitude vs Time

uPlot chart will show altitude changes over time

Zweizeiliger Elementsatz

1 60431U 24144G 25351.89758754 .00000563 00000-0 31124-4 0 9997
2 60431 53.1588 237.2468 0001272 66.6126 293.5009 15.30193130 76789
Epoch: 17. Dez. 2025 • Age: 12 hours

Aktueller Status

Höhe 479.5 km
Geschwindigkeit 7.63 km/s
Subsatellitenpunkt -13.78°S, 162.35°W
Startdatum 12. Aug. 2024
Alter 1.3 years
Typ internet

Technische Details

Klassifizierung Payload
Masse 730.00 kg
Trockenmasse 700.00 kg
Gesamtmasse 730.00 kg
Länge 0.30 m
Durchmesser 4.10 m
Spannweite 29.00 m
Form Box + pan
Hersteller SPXS
Bus-Typ Starlink V2M
Phasenstatus In Orbit
Besitzer/Staat SPXS/US

Große Konstellationen

Loading constellations...